Location: Staunton
(38.1490°N, 79.0720°W)
Time: 22:56:20
(UTC-05:00)

ISS - Pass Details

Date: 21 January 2021
Orbit: 418 x 421 km, 51.6° (Epoch: 23 January)

Event Time Altitude Azimuth Distance (km) Brightness Sun altitude
Rises 19:40:42 0° 283° (WNW) 2,366 1.2 -26.1°
Reaches altitude 10° 19:43:44 10° 313° (NW) 1,504 -0.5 -26.7°
Enters shadow 19:44:21 12° 323° (NW) 1,405 -0.8 -26.8°
